Tracking 30918 objects as of 2-Jul-2025
HD Live streaming from Space Station
objects crossing your sky now

FENGYUN 1C DEB

Track FENGYUN 1C DEB now!
10-day predictions


NORAD ID: 35242
Int'l Code: 1999-025DRA
Perigee: 847.7 km
Apogee: 1,297.8 km
Inclination: 100.0 °
Period: 106.5 minutes
Semi major axis: 7443 km
RCS: 0.0022 m2 (small)
Launch date: May 10, 1999
Source: People's Republic of China (PRC)
Launch site: Taiyaun Space Center, China (TSC)

Note: This is SATELLITE DEBRIS
Your satellite tracking list
FENGYUN 1C DEB
Track 1 satellite(s)




NASA's NSSDC Master Catalog

Two Line Element Set (TLE):
1 35242U 99025DRA 25182.01755970  .00000858  00000-0  10383-2 0  9991
2 35242  99.9707 233.6120 0302294 235.9834 244.2250 13.51813908559018
Source of the keplerian elements: AFSPC